Location: Cabo di Oristano
(39.8500°N, 8.4333°E)
Time: 16:49:38
(UTC+00:00)

Cosmos 1892 - Pass Details

Date: 31 January 2023
Orbit: 485 x 506 km, 82.5° (Epoch: 31 March)

Event Time Altitude Azimuth Distance (km) Brightness Sun altitude
Rises 05:10:05 0° 352° (N) 2,638 6.1 -16.6°
Reaches altitude 10° 05:12:13 10° 352° (N) 1,749 5.2 -16.2°
Maximum altitude 05:16:04 88° 268° (W) 522 2.6 -15.5°
Drops below altitude 10° 05:19:53 10° 174° (S) 1,737 5.6 -14.8°
Sets 05:22:00 0° 174° (S) 2,618 6.5 -14.4°
